Temperature
9 9 9 9 9 9 8 8 7 9 9 9 8 8 9 8 8 7 7 6 6 6 6 5 5 6 6 6 6 6 6 7 7 7 7 7 7 7 7 7 7 7 7 7
8 9 9 8 9 9 9 9 9 9 9 9 9 9 9 8 8 7 6 6 5 5 5 5 5 5 5 5 5 5 6 6 6 6 6 6 6 6 6 6 6 6 6 6
7 8 8 7 8 8 9 9 9 8 9 9 8 8 8 8 7 6 6 5 5 5 4 4 4 4 4 5 5 5 5 5 5 5 5 5 5 5 5 5 5 5 6 6
7 7 6 8 9 9 9 9 9 9 9 9 8 8 7 7 6 6 5 5 4 4 4 4 4 4 4 4 4 4 4 4 5 5 5 5 5 5 5 5 5 5 5 5
6 7 8 8 8 8 8 8 9 8 8 8 8 7 6 6 6 5 5 4 4 4 3 3 3 3 3 3 4 4 4 4 4 4 4 4 4 4 4 4 4 4 4 4
6 6 7 9 8 9 8 7 8 8 7 7 6 5 5 6 5 5 4 4 3 3 3 3 3 3 3 3 3 3 3 3 3 3 3 3 4 4 4 3 3 3 3 3
6 6 7 8 7 7 6 7 8 8 7 7 6 5 5 5 5 4 4 4 3 3 3 3 3 3 2 3 3 3 3 3 3 3 3 3 3 3 3 3 3 3 3 3
6 5 6 6 6 6 7 7 7 7 7 6 6 5 5 4 4 4 3 3 3 3 2 2 2 2 2 2 2 2 2 2 3 3 3 3 2 2 2 2 2 2 2 2
6 7 8 7 7 7 7 7 6 6 6 6 5 4 4 4 3 3 3 3 2 2 2 2 2 2 2 2 2 2 2 2 2 2 2 2 2 2 2 2 2 2 2 2
6 7 8 8 7 7 7 6 6 6 5 5 5 4 3 3 3 3 2 2 2 2 2 2 1 1 1 1 2 2 2 2 2 2 2 2 1 1 1 1 1 1 1 1
5 7 7 7 7 7 6 6 5 5 5 5 4 4 3 3 2 2 2 2 2 1 1 1 1 1 1 1 1 1 1 1 1 1 1 1 1 1 1 0 0 1 1 1
5 7 6 7 7 7 6 5 5 5 4 4 4 3 3 2 2 2 2 1 1 1 1 1 1 1 1 1 1 1 1 1 1 1 1 0 0 1 0 0 0 0 0 0
8 8 8 8 7 6 6 5 5 4 4 4 3 3 2 2 2 2 1 1 1 1 1 0 0 0 0 0 0 0 0 0 0 0 0 0 -0 -0 -0 -0 -0 -0 -0 -0
7 7 6 6 6 6 5 5 4 4 4 3 3 2 2 2 1 1 1 1 1 0 0 0 0 0 -0 -0 -0 -0 -0 -0 -0 -0 -0 -0 -1 -1 -1 -1 -1 -1 -1 -1
6 6 6 6 5 5 4 4 4 3 3 3 2 2 2 1 1 1 1 1 0 0 -0 -0 -0 -0 -0 -0 -0 -0 -1 -1 -1 -1 -1 -1 -1 -1 -1 -2 -2 -1 -1 -1
6 5 5 5 4 4 4 4 3 3 2 2 2 2 1 1 1 1 0 0 0 -0 -0 -0 -1 -1 -1 -1 -1 -1 -1 -1 -1 -1 -1 -1 -1 -2 -2 -2 -2 -2 -2 -2
5 4 4 4 4 4 4 3 3 3 2 2 2 1 1 1 0 0 0 -0 -0 -0 -1 -1 -1 -1 -1 -1 -1 -1 -1 -1 -1 -2 -2 -2 -2 -2 -2 -2 -3 -3 -2 -2
5 5 5 5 4 4 3 3 3 2 2 2 1 1 1 0 0 0 -0 -0 -1 -1 -1 -1 -1 -1 -1 -1 -1 -1 -2 -2 -2 -2 -2 -2 -2 -3 -3 -3 -3 -3 -3 -3
4 4 4 4 4 3 3 3 2 2 2 1 1 1 0 0 -0 -0 -1 -1 -1 -1 -1 -1 -2 -1 -1 -1 -2 -2 -2 -2 -2 -3 -3 -3 -3 -3 -3 -3 -3 -3 -3 -3
3 3 3 3 3 3 3 2 2 2 1 1 1 0 0 -0 -1 -1 -1 -1 -1 -1 -1 -2 -2 -2 -2 -2 -2 -2 -2 -3 -3 -3 -3 -3 -3 -3 -4 -4 -4 -4 -4 -4
3 3 2 2 2 2 2 2 1 1 1 1 0 0 -0 -0 -1 -1 -1 -1 -1 -2 -2 -2 -2 -2 -2 -2 -2 -3 -3 -3 -4 -4 -4 -4 -4 -4 -4 -4 -4 -4 -4 -4
2 2 2 2 2 2 1 1 1 1 1 0 -0 -0 -1 -1 -1 -2 -2 -2 -2 -2 -2 -2 -2 -2 -3 -3 -3 -3 -3 -4 -4 -4 -4 -4 -4 -4 -5 -5 -5 -5 -5 -5
2 1 1 1 1 1 1 1 0 0 -0 -0 -0 -1 -1 -1 -1 -2 -2 -2 -2 -2 -2 -2 -3 -3 -3 -3 -3 -3 -4 -4 -4 -4 -5 -5 -5 -5 -5 -5 -5 -5 -5 -5
1 1 1 1 1 0 0 0 -0 -0 -1 -1 -1 -1 -1 -1 -2 -2 -2 -2 -2 -3 -3 -3 -3 -3 -4 -4 -4 -4 -4 -4 -5 -5 -5 -5 -5 -5 -5 -5 -5 -6 -6 -6
1 1 1 1 0 0 -0 -0 -1 -1 -1 -1 -1 -1 -2 -2 -2 -2 -2 -3 -3 -3 -3 -3 -4 -4 -4 -4 -4 -4 -5 -5 -5 -5 -5 -6 -6 -6 -6 -6 -6 -6 -6 -6
0 0 0 0 0 -0 -0 -1 -1 -1 -1 -1 -2 -2 -2 -2 -2 -3 -3 -3 -3 -3 -4 -4 -4 -4 -5 -5 -5 -5 -5 -5 -6 -6 -6 -6 -6 -6 -6 -7 -7 -7 -7 -7
0 0 0 -0 -1 -1 -1 -1 -1 -1 -2 -2 -2 -2 -2 -3 -3 -3 -3 -3 -4 -4 -4 -4 -5 -5 -5 -5 -5 -5 -6 -6 -6 -6 -6 -7 -7 -7 -7 -7 -7 -7 -7 -7
Wind_Speed
2 2 2 3 4 4 5 4 3 2 1 2 3 3 3 3 3 4 4 5 6 6 6 6 6 6 5 6 6 5 5 4 4 4 4 3 3 2 2 1 1 2 2 2
2 2 3 5 6 6 6 6 5 4 2 3 4 4 3 3 3 3 4 5 5 5 6 6 6 6 6 6 6 5 5 5 5 5 4 3 3 2 2 1 1 1 1 1
2 1 3 6 6 8 5 4 5 5 2 3 3 2 1 1 2 3 4 4 4 4 4 5 5 6 7 6 6 5 5 5 5 5 4 4 3 2 2 1 1 1 1 1
2 2 4 3 2 1 5 5 4 2 2 3 3 2 2 2 3 3 4 4 4 4 4 4 5 6 6 6 6 5 5 5 5 5 5 4 3 3 2 1 1 1 1 1
1 3 6 3 3 2 3 3 4 5 3 3 4 2 1 4 4 3 3 3 3 3 4 4 5 6 6 6 6 6 6 6 6 6 5 4 4 3 2 1 1 1 1 1
1 2 4 1 5 2 2 2 2 4 4 4 3 1 2 2 3 3 3 3 3 3 4 4 5 5 6 6 6 6 6 6 6 6 5 4 4 3 2 1 1 1 1 1
4 4 5 3 5 4 3 3 3 4 4 4 3 2 1 2 2 3 3 3 3 3 3 4 5 5 5 6 6 6 6 6 6 5 5 4 3 2 2 1 1 1 1 1
5 5 6 6 6 5 3 3 3 4 4 4 3 3 2 2 2 2 2 3 3 3 3 4 4 5 5 5 5 6 6 6 6 5 5 3 3 2 1 1 1 1 1 1
6 6 2 7 5 3 4 4 3 3 3 4 3 2 1 1 1 1 2 2 3 3 3 3 4 4 5 6 6 6 6 6 6 5 5 4 3 2 2 1 1 2 1 1
4 5 4 6 5 4 4 4 4 4 3 3 2 1 1 0 0 1 1 2 2 3 3 4 4 4 5 5 5 6 6 6 5 5 5 4 3 2 2 1 1 2 2 2
5 4 3 6 7 7 5 5 5 4 3 3 3 2 1 1 1 0 0 1 1 2 3 4 4 4 5 5 5 6 6 6 5 5 4 4 3 3 3 2 2 3 3 3
7 6 6 5 6 7 7 6 6 5 4 3 3 2 1 1 1 0 0 1 1 2 2 3 4 4 5 5 5 5 5 5 4 4 4 3 3 4 5 4 4 4 3 3
4 2 3 3 5 6 6 6 6 5 5 4 3 2 2 1 1 0 0 1 1 1 2 3 3 4 5 5 5 5 5 5 4 4 3 3 3 3 4 5 5 4 3 3
4 3 2 3 4 5 5 5 5 5 4 4 3 2 2 1 1 1 1 1 1 1 2 2 3 4 4 4 4 5 5 5 4 3 3 3 3 3 3 3 4 4 4 3
8 6 6 4 5 5 5 5 5 5 4 4 3 3 2 2 2 2 1 0 0 1 1 2 3 4 4 4 4 4 4 4 3 3 3 3 3 3 3 3 3 3 3 2
7 6 6 6 7 7 6 6 6 6 5 4 4 4 3 3 2 1 1 1 1 1 2 2 3 3 3 4 4 4 3 5 4 3 3 3 3 3 3 3 2 2 2 2
8 7 8 8 8 8 8 8 7 6 5 5 4 3 3 2 2 1 1 1 1 2 2 2 2 3 3 3 3 3 3 4 4 3 3 3 3 3 3 3 2 2 2 2
9 9 9 10 9 9 8 7 6 6 5 4 4 4 3 3 3 3 2 1 1 2 2 2 2 2 3 3 3 3 3 3 3 3 3 3 3 3 3 3 2 3 2 2
6 6 7 7 7 8 7 7 6 6 5 5 5 5 4 4 3 2 2 2 3 3 2 1 2 2 2 3 3 2 2 3 3 3 3 4 4 3 2 2 2 2 2 2
5 5 6 6 6 6 6 6 6 6 5 5 5 4 4 3 3 3 3 4 4 3 1 1 1 2 2 2 2 2 2 2 3 3 2 2 3 3 3 2 2 2 2 2
5 5 6 6 6 5 6 6 6 6 6 6 6 5 5 3 3 3 3 4 3 2 1 1 1 2 2 2 2 2 2 2 2 2 2 2 3 3 3 2 2 3 2 2
4 5 6 6 6 5 5 5 6 6 6 5 5 4 4 3 3 3 4 4 2 2 1 1 2 3 3 3 2 2 2 2 2 2 2 2 2 3 3 3 2 2 2 2
4 4 5 6 6 5 4 4 5 5 6 6 6 5 5 4 3 3 4 2 2 2 1 2 3 4 4 2 2 2 2 2 2 2 2 2 2 2 3 3 3 2 2 2
4 4 4 4 5 5 5 4 4 4 5 5 5 5 5 3 3 3 3 2 2 2 2 3 4 4 4 2 2 2 2 2 2 2 2 3 2 2 3 3 3 2 2 3
4 4 4 5 5 5 5 5 4 4 4 4 4 4 4 4 3 2 1 2 3 3 2 3 4 4 2 2 2 2 2 3 3 2 2 2 3 3 3 3 3 3 3 3
4 4 4 4 3 3 4 4 4 4 4 4 3 3 3 2 2 2 2 2 3 3 2 2 2 3 2 2 3 3 2 3 3 3 3 3 3 3 3 3 4 3 3 3
4 3 3 2 2 3 4 4 4 4 4 4 3 3 3 3 2 2 2 2 2 2 2 2 2 2 2 2 2 2 2 2 2 3 3 3 3 3 3 4 3 3 3 3
Wind_Direction
317 326 314 262 244 222 212 210 198 229 190 146 125 112 101 82 74 57 40 35 27 18 15 10 7 4 1 352 346 343 343 341 330 324 329 334 330 319 312 323 311 282 265 251
285 252 284 277 256 237 233 228 223 250 277 90 96 93 80 68 63 50 34 28 21 13 10 5 358 354 352 346 341 340 342 335 332 333 331 331 334 332 319 321 321 315 281 242
277 175 293 271 234 214 206 200 205 227 209 103 88 95 89 63 70 58 38 22 11 3 1 358 349 346 344 340 341 344 340 335 335 334 328 325 327 331 328 320 298 296 307 269
299 335 259 235 47 175 201 215 212 200 133 116 119 112 92 79 75 54 28 13 6 0 353 352 352 346 341 342 346 341 338 337 337 335 327 327 330 325 319 310 298 274 273 258
288 285 271 196 163 156 180 237 203 194 162 103 82 83 91 70 58 55 38 19 4 358 350 350 351 345 342 343 347 347 345 344 337 330 322 320 316 311 309 306 303 278 223 209
223 272 266 165 130 112 109 257 173 163 157 137 116 172 233 71 53 46 38 23 9 359 360 358 351 350 348 344 347 347 344 337 330 326 324 320 314 311 313 305 286 290 284 233
224 251 271 137 135 130 162 230 138 131 136 138 162 180 125 72 55 45 30 21 15 12 6 355 350 353 348 344 345 340 335 332 333 333 330 326 323 318 317 313 301 258 260 261
194 224 248 150 148 183 192 122 112 110 118 122 112 102 91 71 60 40 23 18 15 10 358 353 354 352 344 344 342 340 337 335 336 339 338 335 330 318 304 279 256 252 232 254
202 216 180 164 175 151 121 131 122 114 108 121 126 131 105 73 51 35 26 15 14 5 350 348 357 358 346 341 343 342 340 338 338 343 340 337 332 324 316 295 258 255 235 238
266 245 194 189 174 160 156 148 135 133 133 132 140 134 125 121 50 23 19 9 7 358 349 347 358 358 345 338 343 342 335 334 336 337 338 341 337 327 306 278 254 247 242 236
249 247 207 214 196 183 167 148 143 141 145 151 148 163 192 231 225 241 2 355 4 349 338 342 351 351 348 345 346 341 335 337 339 338 338 337 335 330 319 296 277 267 249 226
226 211 194 211 182 170 168 172 168 165 170 164 165 186 193 224 207 161 309 338 335 340 343 340 344 345 350 352 351 341 335 336 336 334 334 335 336 340 351 334 326 314 294 278
218 176 169 157 158 163 170 171 169 172 175 172 173 173 181 211 196 187 232 293 317 333 327 330 343 346 350 354 351 342 332 330 329 328 328 330 331 331 333 343 346 338 322 312
175 146 184 194 186 169 161 158 158 163 167 164 166 161 164 187 206 218 234 244 286 325 322 327 339 339 346 350 347 340 334 330 331 324 323 326 324 318 316 318 327 335 337 327
207 203 198 178 159 153 147 150 162 179 177 172 168 172 183 195 215 229 231 212 264 298 313 328 333 332 345 348 341 332 329 328 328 326 323 319 317 315 313 311 311 315 326 334
198 190 179 176 179 174 170 177 188 194 187 184 183 188 192 190 201 202 193 194 223 259 283 303 310 322 341 340 332 323 319 324 330 326 323 322 321 319 318 316 314 312 312 313
182 194 194 194 195 193 190 190 193 190 187 187 185 176 168 171 184 203 220 216 229 254 264 271 289 312 320 321 322 315 317 322 330 331 327 328 326 322 318 316 313 313 310 306
201 199 192 189 191 193 192 188 186 181 184 181 162 160 173 190 207 219 230 237 257 268 267 267 298 315 315 319 322 319 322 322 322 317 320 323 322 319 317 313 309 311 318 321
194 190 188 185 182 181 181 180 178 175 168 163 169 183 194 205 210 214 215 227 248 261 272 283 315 313 306 315 332 319 319 320 320 319 319 320 324 321 318 315 315 314 315 323
182 176 173 172 171 172 173 171 165 166 166 166 170 180 195 209 207 209 218 234 237 238 250 280 289 285 292 302 328 315 313 314 313 314 314 314 315 316 316 315 316 315 315 316
171 167 166 168 169 166 166 165 167 171 171 171 180 191 199 208 209 208 222 248 251 208 200 246 253 265 278 302 309 301 298 302 303 301 303 305 309 312 313 315 317 317 317 319
168 166 168 167 165 167 166 166 169 172 174 181 187 188 190 204 217 227 231 232 232 200 204 242 252 268 284 297 283 280 283 289 292 297 300 304 305 304 306 309 309 310 312 311
167 169 169 171 169 166 160 166 171 176 184 189 190 193 200 207 209 223 247 232 207 217 227 245 261 271 280 281 270 270 273 278 286 291 295 296 294 293 295 299 301 301 299 298
160 162 161 154 147 159 179 189 179 180 187 193 196 197 197 203 223 222 221 210 212 234 243 261 269 271 274 268 263 264 267 271 276 281 285 287 287 288 287 287 289 291 291 291
159 157 157 159 172 189 189 175 171 182 187 196 202 203 201 198 205 215 209 221 233 240 250 263 269 272 266 261 255 257 261 262 262 265 267 276 279 279 279 278 277 279 281 282
166 170 177 183 185 180 173 173 185 190 188 195 203 198 190 186 192 198 210 223 227 243 241 245 258 267 261 258 257 259 261 274 284 279 268 268 270 272 276 280 282 279 278 278
157 158 159 168 182 179 177 181 189 194 192 192 200 191 182 184 192 201 209 220 225 227 228 235 243 250 255 259 262 264 266 268 270 273 272 270 271 275 280 280 280 280 281 279
Height
1461 1460 1459 1460 1460 1460 1464 1464 1469 1463 1462 1462 1463 1464 1465 1466 1466 1467 1467 1466 1465 1464 1463 1461 1460 1459 1458 1456 1455 1454 1452 1452 1451 1450 1449 1448 1448 1447 1447 1446 1446 1446 1446 1446
1463 1459 1460 1460 1458 1458 1459 1459 1460 1461 1462 1460 1461 1463 1465 1466 1466 1466 1466 1466 1465 1464 1462 1461 1459 1458 1456 1455 1453 1452 1451 1449 1448 1447 1446 1445 1444 1444 1443 1442 1442 1442 1442 1442
1465 1461 1462 1464 1455 1455 1456 1456 1458 1461 1461 1460 1462 1463 1464 1465 1465 1466 1466 1465 1465 1463 1462 1460 1459 1457 1455 1453 1452 1450 1449 1447 1446 1444 1443 1442 1441 1440 1439 1439 1439 1438 1438 1438
1467 1466 1471 1456 1450 1450 1452 1454 1455 1455 1457 1459 1461 1463 1464 1465 1465 1465 1465 1464 1463 1462 1460 1459 1458 1456 1454 1452 1451 1449 1447 1445 1444 1442 1440 1439 1438 1437 1436 1436 1435 1435 1434 1435
1469 1467 1458 1453 1451 1451 1453 1454 1452 1454 1456 1458 1460 1462 1463 1464 1464 1464 1464 1463 1462 1460 1459 1457 1456 1454 1452 1451 1449 1447 1446 1444 1442 1440 1438 1436 1435 1434 1434 1433 1433 1432 1432 1432
1468 1470 1463 1451 1451 1450 1454 1456 1451 1452 1455 1457 1460 1464 1464 1463 1463 1463 1462 1461 1460 1459 1457 1456 1454 1453 1451 1449 1447 1446 1444 1442 1440 1438 1436 1434 1433 1432 1431 1431 1430 1429 1429 1429
1469 1469 1457 1451 1450 1452 1460 1456 1451 1451 1453 1456 1458 1461 1462 1461 1461 1461 1460 1459 1458 1457 1456 1454 1453 1451 1449 1447 1445 1443 1441 1439 1437 1435 1434 1432 1430 1429 1428 1428 1427 1427 1427 1427
1465 1467 1461 1450 1450 1453 1452 1450 1450 1451 1453 1455 1457 1458 1459 1459 1459 1459 1458 1457 1456 1455 1454 1452 1451 1449 1447 1445 1444 1442 1440 1437 1435 1433 1432 1430 1428 1427 1426 1425 1425 1424 1424 1424
1455 1454 1446 1446 1446 1447 1448 1449 1450 1451 1453 1454 1455 1456 1457 1457 1457 1457 1456 1456 1455 1453 1452 1451 1449 1448 1446 1444 1442 1440 1438 1435 1433 1432 1430 1428 1426 1425 1424 1423 1422 1422 1422 1422
1448 1444 1443 1444 1444 1445 1446 1447 1448 1450 1451 1452 1453 1454 1455 1455 1455 1455 1454 1454 1453 1452 1450 1449 1448 1446 1444 1442 1440 1438 1436 1434 1432 1430 1428 1426 1425 1423 1422 1421 1420 1420 1420 1420
1446 1442 1441 1441 1441 1442 1444 1445 1447 1448 1449 1450 1451 1452 1452 1452 1452 1452 1452 1451 1451 1449 1448 1447 1446 1444 1442 1440 1438 1436 1434 1432 1430 1429 1427 1425 1423 1422 1420 1419 1419 1418 1417 1417
1440 1435 1436 1436 1437 1439 1441 1442 1444 1445 1447 1448 1448 1449 1449 1449 1450 1449 1449 1449 1448 1447 1446 1445 1444 1442 1440 1439 1437 1435 1433 1431 1429 1427 1425 1423 1422 1420 1419 1418 1417 1416 1416 1416
1431 1431 1432 1433 1434 1436 1437 1439 1441 1442 1444 1445 1445 1446 1446 1447 1447 1446 1446 1446 1445 1444 1444 1443 1441 1440 1438 1437 1435 1433 1431 1429 1427 1426 1424 1422 1420 1418 1416 1416 1415 1414 1413 1413
1428 1429 1430 1430 1432 1433 1435 1436 1438 1439 1441 1442 1442 1443 1443 1443 1443 1443 1443 1443 1442 1442 1441 1440 1439 1438 1436 1435 1433 1431 1430 1428 1426 1424 1422 1420 1419 1417 1415 1414 1412 1411 1411 1411
1424 1425 1426 1427 1429 1430 1432 1433 1435 1436 1437 1438 1439 1439 1440 1440 1440 1440 1440 1440 1440 1439 1438 1438 1437 1435 1434 1433 1431 1429 1427 1426 1424 1422 1421 1419 1417 1415 1414 1412 1411 1410 1409 1409
1419 1420 1422 1423 1424 1426 1428 1429 1430 1432 1433 1434 1435 1435 1436 1436 1437 1437 1437 1437 1436 1436 1435 1435 1434 1433 1432 1430 1429 1427 1425 1424 1422 1420 1419 1417 1415 1414 1412 1411 1409 1408 1407 1406
1414 1415 1417 1418 1420 1421 1423 1425 1426 1428 1429 1430 1431 1432 1433 1433 1433 1433 1433 1433 1433 1433 1432 1432 1431 1430 1429 1428 1426 1425 1423 1421 1420 1418 1417 1415 1414 1412 1411 1409 1408 1406 1406 1405
1408 1409 1411 1412 1414 1416 1418 1421 1422 1424 1425 1426 1427 1428 1428 1429 1429 1429 1430 1430 1430 1429 1429 1428 1428 1427 1426 1425 1423 1422 1420 1419 1418 1416 1415 1413 1412 1411 1409 1408 1406 1405 1404 1404
1403 1405 1406 1408 1410 1412 1414 1416 1418 1420 1421 1423 1423 1424 1424 1425 1425 1426 1426 1426 1426 1425 1425 1425 1424 1424 1423 1422 1420 1419 1418 1416 1415 1414 1412 1411 1410 1409 1407 1406 1405 1404 1403 1402
1398 1400 1402 1404 1406 1408 1410 1412 1414 1416 1417 1419 1419 1420 1421 1421 1422 1422 1422 1422 1422 1422 1422 1422 1421 1420 1419 1418 1417 1416 1415 1414 1413 1411 1410 1409 1408 1406 1405 1404 1403 1402 1401 1400
1394 1396 1398 1400 1402 1404 1406 1408 1410 1411 1413 1414 1415 1416 1416 1417 1418 1418 1418 1418 1419 1419 1419 1418 1417 1417 1416 1415 1414 1413 1412 1411 1410 1409 1408 1407 1405 1404 1403 1402 1401 1400 1399 1398
1391 1393 1395 1397 1399 1400 1402 1404 1406 1407 1409 1410 1411 1412 1413 1413 1414 1414 1414 1415 1415 1415 1415 1414 1414 1413 1413 1412 1411 1410 1409 1408 1407 1406 1405 1404 1403 1402 1401 1399 1398 1397 1396 1395
1389 1390 1392 1394 1396 1397 1399 1401 1402 1403 1405 1406 1407 1408 1409 1409 1410 1410 1411 1411 1411 1411 1411 1411 1410 1410 1409 1408 1407 1407 1406 1405 1404 1403 1402 1401 1400 1399 1398 1397 1396 1395 1394 1393
1387 1388 1390 1392 1393 1395 1396 1397 1398 1400 1401 1402 1403 1404 1405 1405 1406 1406 1407 1407 1407 1407 1407 1406 1406 1406 1405 1404 1404 1403 1402 1401 1400 1399 1398 1397 1396 1395 1394 1393 1392 1392 1391 1390
1384 1386 1387 1389 1390 1391 1393 1394 1395 1396 1397 1398 1399 1400 1401 1401 1402 1402 1402 1403 1403 1402 1402 1402 1402 1401 1401 1400 1399 1399 1398 1397 1396 1395 1394 1393 1393 1392 1391 1390 1389 1388 1387 1386
1382 1383 1385 1387 1388 1389 1390 1391 1391 1392 1393 1394 1395 1396 1397 1397 1397 1398 1398 1398 1398 1398 1398 1398 1397 1397 1396 1396 1395 1395 1394 1393 1392 1391 1391 1390 1389 1388 1387 1386 1385 1384 1383 1382
1379 1381 1382 1383 1384 1386 1386 1387 1388 1389 1390 1390 1391 1392 1392 1393 1393 1393 1393 1394 1394 1394 1393 1393 1393 1392 1392 1392 1391 1391 1390 1389 1388 1387 1387 1386 1385 1384 1383 1382 1381 1380 1379 1378